Terminal Aerodrome Forecast
Issued by NWS New Orleans/Baton Rouge, LA

Home | Current Version | Previous Version | Text Only | Print | Product List | Glossary On
Versions: 1 2 3 4 5 6 7 8 9 10 11 12 13 14 15 16 17 18 19 20 21 22 23 24 25 26 27 28 29 30 31 32 33 34 35 36 37 38 39 40 41 42 43 44 45 46 47 48 49 50
000
FTUS44 KLIX 050800 AAA
TAFNEW
TAF AMD
KNEW 050817Z 0508/0606 21012KT P6SM SCT008 BKN020 BKN050
     FM051100 30009KT P6SM BKN003
     FM051600 34019KT P6SM BKN008
     FM052000 36024G32KT P6SM OVC008
     FM060300 01023KT P6SM OVC050=

USA.gov is the U.S. government's official web portal to all federal, state and local government web resources and services.